Home   Weather   Ås   Past weeks

Flag for Norway Past Weather in Ås, Norway — Yesterday and Last 2 Weeks

52 °F

Passing clouds.

Feels Like: 43 °F
Forecast: 45 / 51 °F
Wind: 47 mph from Southwest

Location: Statfjord B

Current Time: Oct 27, 2016 at 9:01:16 AM

Latest Report: Oct 27, 2016 at 7:50 AM

Visibility: 5 mi

Pressure: 29.74 "Hg

Humidity: 88%

Dew Point: 48 °F

Location of ÅsLocation

Past Weather in Ås — Graph


Ås Temperature Yesterday

Maximum temperature yesterday: 54 °F (at 5:50 PM)
Minimum temperature yesterday: 50 °F (at 12:20 AM)
Average temperature yesterday: 52 °F

High & Low Weather Summary for the Past Weeks

High57 °F (Oct 12, 2:50 PM)100% (Oct 19, 6:20 PM)30.51 "Hg (Oct 19, 6:20 PM)
Low46 °F (Oct 23, 2:20 PM)50% (Oct 23, 2:20 PM)29.71 "Hg (Oct 26, 1:50 PM)
Average51 °F79%30.15 "Hg
* Reported Oct 12 7:20 AM — Oct 27 7:50 AM, Ås, Weather by CustomWeather, © 2016

Note: Actual official high and low records may vary slightly from our data, if they occured in-between our weather recording intervals... More about our weather records


Ås Weather History for the Previous 24 Hours

Scroll right to see more
Time TempWeatherWind HumidityBarometerVisibility
7:50 AM
Thu, Oct 27
52 °FPassing clouds.47 mph88%29.74 "Hg5 mi
7:20 AM52 °FPassing clouds.47 mph88%29.74 "HgN/A
6:50 AM52 °FPassing clouds.47 mph88%29.74 "HgN/A
6:20 AM52 °FSprinkles. Passing clouds.44 mph94%29.77 "Hg4 mi
5:50 AM50 °FLight rain. Fog.44 mph94%29.77 "Hg3 mi
5:20 AM50 °FLight rain. Passing clouds.39 mph94%29.80 "Hg3 mi
4:50 AM50 °FLight rain. Fog.36 mph94%29.80 "Hg1 mi
4:20 AM50 °FLight rain. Fog.33 mph94%29.83 "Hg1 mi
3:50 AM52 °FPassing clouds.33 mph82%29.83 "HgN/A
3:20 AM52 °FPassing clouds.33 mph82%29.83 "HgN/A
2:50 AM52 °FPassing clouds.35 mph82%29.83 "HgN/A
2:20 AM50 °FPassing clouds.37 mph88%29.83 "HgN/A
1:50 AM50 °FPassing clouds.33 mph88%29.86 "HgN/A
1:20 AM52 °FPassing clouds.38 mph72%29.83 "HgN/A
12:50 AM50 °FSprinkles. Passing clouds.33 mph88%29.86 "HgN/A
12:20 AM52 °FPassing clouds.32 mph77%29.83 "HgN/A
11:50 PM
Wed, Oct 26
52 °FPassing clouds.39 mph67%29.83 "HgN/A
11:20 PM52 °FPassing clouds.37 mph77%29.83 "HgN/A
10:50 PM52 °FPassing clouds.38 mph77%29.83 "HgN/A
10:20 PM52 °FPassing clouds.37 mph77%29.80 "HgN/A
9:50 PM52 °FPassing clouds.35 mph72%29.80 "HgN/A
9:20 PM52 °FPassing clouds.38 mph77%29.80 "HgN/A
8:50 PM50 °FPassing clouds.40 mph76%29.80 "HgN/A
8:20 PM52 °FPassing clouds.38 mph72%29.77 "HgN/A
7:50 PM50 °FPassing clouds.39 mph82%29.77 "HgN/A
7:20 PM52 °FPassing clouds.38 mph77%29.77 "HgN/A
6:50 PM52 °FPassing clouds.39 mph77%29.74 "HgN/A
6:20 PM52 °FPassing clouds.43 mph77%29.74 "HgN/A
5:50 PM54 °FCool.41 mph72%29.74 "HgN/A
5:20 PM52 °FPassing clouds.44 mph77%29.71 "HgN/A
4:50 PM52 °FPartly sunny.38 mph82%29.74 "HgN/A
4:20 PM52 °FPassing clouds.37 mph82%29.71 "HgN/A
3:50 PM52 °FBroken clouds.37 mph88%29.71 "HgN/A
3:20 PM52 °FPartly sunny.37 mph88%29.71 "HgN/A
2:50 PM52 °FPassing clouds.38 mph94%29.71 "HgN/A
2:20 PM52 °FPartly sunny.41 mph94%29.71 "HgN/A
1:50 PM52 °FPartly sunny.41 mph94%29.71 "HgN/A
1:20 PM52 °FPartly sunny.45 mph94%29.74 "HgN/A
12:50 PM52 °FLight rain. Partly sunny.44 mph94%29.74 "Hg3 mi
12:20 PM52 °FLight rain. Fog.46 mph94%29.74 "Hg1 mi
11:50 AM52 °FLight rain. Fog.45 mph94%29.74 "Hg3 mi
11:20 AM52 °FLight rain. Partly sunny.45 mph94%29.77 "Hg4 mi
10:50 AM52 °FSprinkles. Fog.45 mph94%29.77 "Hg2 mi
10:20 AM52 °FSprinkles. Partly sunny.45 mph94%29.77 "Hg4 mi
9:50 AM52 °FSprinkles. Partly sunny.46 mph88%29.80 "HgN/A
9:20 AM52 °FSprinkles. Partly sunny.43 mph88%29.80 "HgN/A
Weather by CustomWeather, © 2016

See weather overviewHow to use our weather pages